GW4551 Weather Reports


Display with metric or nautical units.
time (UTC)temp
F
wind
direction
speed
MPH
gust
MPH
rain 1hr
in
rain 24hr
in
rain mn
in
humidity
%
barometer
mb
20260506042528 46 348 4.0 10.0 0.00 0.00 0.00 84 1012.7
20260506041604 46 4 3.0 9.0 0.00 0.00 0.00 84 1012.6
20260506040520 46 11 3.0 7.0 0.00 0.00 0.00 83 1012.7
20260506035556 46 14 4.0 8.0 0.00 0.00 0.00 82 1012.6
20260506034532 47 18 6.0 11.0 0.00 0.00 0.00 82 1012.6
20260506033528 47 4 4.0 8.0 0.00 0.00 0.00 82 1012.5
20260506032522 47 22 4.0 9.0 0.00 0.00 0.00 82 1012.5
20260506031518 47 8 5.0 10.0 0.00 0.00 0.00 82 1012.6
20260506030535 47 14 4.0 8.0 0.00 0.00 0.00 83 1012.7
20260506025531 47 33 5.0 11.0 0.00 0.00 0.00 83 1012.6
20260506024526 47 11 2.0 6.0 0.00 0.00 0.00 84 1012.6
20260506023521 48 13 4.0 8.0 0.00 0.00 0.00 83 1012.6
20260506022517 48 19 3.0 7.0 0.00 0.00 0.00 83 1012.5
20260506021534 48 4 2.0 4.0 0.00 0.00 0.00 81 1012.7
20260506020529 48 26 3.0 7.0 0.00 0.00 0.00 81 1012.7
20260506015524 48 15 4.0 7.0 0.00 0.00 0.00 80 1012.7
20260506014520 48 15 3.0 6.0 0.00 0.00 0.00 79 1012.8
20260506013516 49 41 4.0 9.0 0.00 0.00 0.00 78 1012.8
20260506012532 49 46 6.0 11.0 0.00 0.00 0.00 77 1012.7
20260506011528 49 42 6.0 8.0 0.00 0.00 0.00 77 1012.9
20260506010525 49 42 6.0 8.0 0.00 0.00 0.00 76 1012.8
20260506005520 49 30 6.0 9.0 0.00 0.00 0.00 76 1012.9
20260506004516 49 24 6.0 10.0 0.00 0.00 0.00 77 1012.9
20260506003612 50 20 5.0 10.0 0.00 0.00 0.00 78 1012.9
20260506002529 50 23 5.0 8.0 0.00 0.00 0.00 78 1012.9
20260506001524 50 30 6.0 10.0 0.00 0.00 0.00 78 1013.0
20260506000520 50 26 3.0 7.0 0.00 0.00 0.00 80 1012.9
20260505235535 50 51 4.0 8.0 0.00 0.00 0.00 79 1012.8
20260505234532 51 66 4.0 8.0 0.00 0.00 0.00 79 1013.0
20260505233528 50 59 4.0 7.0 0.00 0.00 0.00 80 1012.9
20260505232523 50 52 4.0 7.0 0.00 0.00 0.00 81 1012.9
20260505231518 51 48 4.0 6.0 0.00 0.00 0.00 80 1012.9
20260505230534 51 64 3.0 8.0 0.00 0.00 0.00 78 1012.9
20260505225529 52 27 4.0 7.0 0.00 0.00 0.00 75 1012.9
20260505224524 52 22 3.0 6.0 0.00 0.00 0.00 74 1012.9
20260505223519 52 20 3.0 7.0 0.00 0.00 0.00 73 1012.8
20260505222535 52 27 4.0 7.0 0.00 0.00 0.00 73 1012.6
20260505221610 53 20 4.0 8.0 0.00 0.00 0.00 72 1012.6
20260505220525 53 31 5.0 9.0 0.00 0.00 0.00 72 1012.5
20260505215521 53 12 4.0 8.0 0.00 0.00 0.00 71 1012.6
20260505214516 53 26 5.0 9.0 0.00 0.00 0.00 71 1012.6
20260505213533 53 17 5.0 11.0 0.00 0.00 0.00 71 1012.6
20260505212528 53 20 3.0 6.0 0.00 0.00 0.00 72 1012.7
20260505211523 54 15 5.0 10.0 0.00 0.00 0.00 72 1012.6
20260505210518 54 10 4.0 9.0 0.00 0.00 0.00 72 1012.4
20260505205533 54 15 5.0 9.0 0.00 0.00 0.00 71 1012.4
20260505204529 55 15 3.0 6.0 0.00 0.00 0.00 70 1012.4
20260505203523 55 1 3.0 6.0 0.00 0.00 0.00 70 1012.3
20260505202518 55 339 3.0 6.0 0.00 0.00 0.00 70 1012.2
20260505201612 55 337 3.0 7.0 0.00 0.00 0.00 70 1012.2
20260505200528 55 340 4.0 7.0 0.00 0.00 0.00 70 1012.2
20260505195523 55 331 4.0 7.0 0.00 0.00 0.00 69 1012.1
20260505194518 55 334 5.0 8.0 0.00 0.00 0.00 69 1012.1
20260505193533 55 334 5.0 8.0 0.00 0.00 0.00 69 1011.9
20260505192528 55 341 4.0 7.0 0.00 0.00 0.00 69 1011.8
20260505191523 55 339 4.0 7.0 0.00 0.00 0.00 69 1011.8
20260505190519 55 335 4.0 7.0 0.00 0.00 0.00 68 1011.8
20260505185534 56 344 3.0 7.0 0.00 0.00 0.00 67 1011.6
20260505184530 56 0 4.0 9.0 0.00 0.00 0.00 67 1011.7
20260505183524 56 349 2.0 6.0 0.00 0.00 0.00 70 1011.7
20260505182519 56 343 3.0 4.0 0.00 0.00 0.00 70 1011.5
20260505181534 56 335 2.0 4.0 0.00 0.00 0.00 70 1011.6
20260505180529 56 327 2.0 3.0 0.00 0.00 0.00 70 1011.6
20260505175523 56 336 2.0 3.0 0.00 0.00 0.00 69 1011.7
20260505174519 56 340 2.0 4.0 0.00 0.00 0.00 69 1011.7
20260505173533 56 344 3.0 6.0 0.00 0.00 0.00 68 1011.7
20260505172526 56 340 5.0 8.0 0.00 0.00 0.00 68 1011.8
20260505171521 56 343 4.0 7.0 0.00 0.00 0.00 68 1011.7
20260505170609 57 337 6.0 9.0 0.00 0.00 0.00 68 1011.8
20260505165604 57 331 6.0 9.0 0.00 0.00 0.00 67 1011.9
20260505164520 57 329 3.0 6.0 0.00 0.00 0.00 66 1011.8
20260505163516 58 332 4.0 8.0 0.00 0.00 0.00 65 1011.8
20260505162611 57 338 3.0 6.0 0.00 0.00 0.00 65 1011.8
20260505161527 57 329 4.0 7.0 0.00 0.00 0.00 64 1011.8
20260505160603 57 337 3.0 6.0 0.00 0.00 0.00 65 1011.9
20260505152526 57 333 4.0 7.0 0.00 0.00 0.00 66 1011.9
20260505151522 57 340 3.0 7.0 0.00 0.00 0.00 65 1012.0
20260505150518 57 353 2.0 4.0 0.00 0.00 0.00 65 1012.1
20260505140614 58 349 6.0 9.0 0.00 0.00 0.00 62 1012.1
20260505124521 57 333 5.0 11.0 0.00 0.00 0.00 68 1012.5
20260505123517 57 322 4.0 9.0 0.00 0.00 0.00 68 1012.5
20260505122533 57 345 4.0 9.0 0.00 0.00 0.00 66 1012.6
20260505121529 56 342 4.0 7.0 0.00 0.00 0.00 68 1012.6
20260505120525 56 359 5.0 9.0 0.00 0.00 0.00 68 1012.6
20260505115520 56 351 4.0 8.0 0.00 0.00 0.00 69 1012.7
20260505114517 55 349 4.0 9.0 0.00 0.00 0.00 71 1012.7
20260505113533 54 8 5.0 8.0 0.00 0.00 0.00 73 1012.8
20260505112528 54 27 5.0 9.0 0.00 0.00 0.00 74 1012.8
20260505111603 54 45 6.0 13.0 0.00 0.00 0.00 74 1013.0
20260505110520 55 36 8.0 13.0 0.00 0.00 0.00 73 1012.9
20260505101519 53 358 4.0 10.0 0.00 0.00 0.00 78 1013.0
20260505100536 53 8 4.0 9.0 0.00 0.00 0.00 78 1013.0
20260505095531 53 332 6.0 9.0 0.00 0.00 0.00 78 1013.1
20260505094607 53 333 4.0 8.0 0.00 0.00 0.00 79 1013.2
20260505093523 53 10 5.0 10.0 0.00 0.00 0.00 77 1013.2
20260505092519 52 26 4.0 9.0 0.00 0.00 0.00 79 1013.2
20260505091535 53 14 5.0 10.0 0.00 0.00 0.00 78 1013.3
20260505090531 52 10 5.0 9.0 0.00 0.00 0.00 79 1013.3
20260505085527 52 0 6.0 11.0 0.00 0.00 0.00 79 1013.3
20260505084523 52 6 5.0 10.0 0.00 0.00 0.00 80 1013.3
20260505083518 52 353 6.0 10.0 0.00 0.00 0.00 80 1013.4
20260505082614 52 6 5.0 9.0 0.00 0.00 0.00 81 1013.3
20260505081531 52 16 6.0 9.0 0.00 0.00 0.00 81 1013.3
20260505080606 52 20 5.0 9.0 0.00 0.00 0.00 80 1013.3
20260505075522 53 354 7.0 14.0 0.00 0.00 0.00 80 1013.3
20260505074518 52 357 5.0 10.0 0.00 0.00 0.00 81 1013.2
20260505073533 52 340 5.0 11.0 0.00 0.00 0.00 84 1013.2
20260505072529 52 340 5.0 11.0 0.00 0.00 0.00 85 1013.2
20260505071525 52 340 5.0 8.0 0.00 0.00 0.00 86 1013.3
20260505070521 51 335 4.0 7.0 0.00 0.00 0.00 87 1013.4
20260505065516 51 338 3.0 6.0 0.00 0.00 0.00 88 1013.4
20260505064531 51 342 3.0 6.0 0.00 0.00 0.00 88 1013.5
20260505063528 51 354 3.0 6.0 0.00 0.00 0.00 88 1013.3
20260505062523 51 9 2.0 3.0 0.00 0.00 0.00 89 1013.3
20260505061520 50 9 1.0 3.0 0.00 0.00 0.00 91 1013.4
20260505060535 50 340 3.0 8.0 0.00 0.00 0.00 92 1013.4
20260505055531 49 350 4.0 9.0 0.00 0.00 0.00 92 1013.3
20260505054527 49 341 4.0 8.0 0.00 0.00 0.00 92 1013.2
20260505053523 49 12 3.0 6.0 0.00 0.00 0.00 92 1013.3
20260505052518 49 24 3.0 7.0 0.00 0.00 0.00 92 1013.3
20260505051535 49 352 4.0 8.0 0.00 0.00 0.00 93 1013.4
20260505050530 49 10 3.0 6.0 0.00 0.00 0.00 93 1013.3